Regional Weather Roundup
Issued by NWS Newport/Morehead, NC

Current Version | Previous Version | Graphics & Text | Print | Product List | Glossary Off
Versions: 1 2 3 4 5 6 7 8 9 10 11 12 13 14 15 16 17 18 19 20 21 22 23 24 25 26 27 28 29 30 31 32 33 34 35 36 37 38 39 40 41 42 43 44 45 46 47 48 49 50

000
ASUS42 KMHX 151210
RWRMHX
WEATHER ROUNDUP FOR EASTERN NORTH CAROLINA
NATIONAL WEATHER SERVICE NEWPORT/MOREHEAD CITY NC
800 AM EDT TUE APR 15 2014

NOTE: "FAIR" INDICATES FEW OR NO CLOUDS BELOW 12,000 FEET
WITH NO SIGNIFICANT WEATHER AND/OR OBSTRUCTIONS TO VISIBILITY

NCZ015>017-031-032-045>047-102-103-151300-
NORTH COAST

CITY           SKY/WX    TMP DP  RH WIND       PRES   REMARKS
EDENTON        CLOUDY    70  68  94 S15G21    29.79S
ELIZABETH CITY CLOUDY    70  66  87 S12G23    29.79S
KITTY HAWK     LGT RAIN  69  67  95 S13G25    29.81S
MANTEO         LGT RAIN  67  66  96 S21G29    29.82F

$$

NCZ045>047-081-094-103-104-151300-
CENTRAL COAST

CITY           SKY/WX    TMP DP  RH WIND       PRES   REMARKS
FRISCO         LGT RAIN  68  66  93 S20G29    29.85F FOG
SWANQUARTER      N/A     70 N/A N/A S3G18     29.79S

$$

NCZ095-097-098-100-101-151300-
SOUTHERN COAST

CITY           SKY/WX    TMP DP  RH WIND       PRES   REMARKS
BEAUFORT       CLOUDY    69  66  90 S17G24    29.82F FOG
CEDAR ISLAND     N/A     68 N/A N/A S15G23    29.85F
JACKSONVILLE   CLOUDY    72  71  97 S20G33    29.79F
NEWPORT          N/A     72  68  88 S12G17      N/A
PINEY ISLAND   NOT AVBL
WILMINGTON     LGT RAIN  72  69  90 S18G29    29.78F FOG


$$

NCZ011>013-027>030-043-044-078>080-089-090>093-098-151300-
COASTAL PLAIN

CITY           SKY/WX    TMP DP  RH WIND       PRES   REMARKS
AHOSKIE        CLOUDY    69  65  89 S10G16    29.75S
CLINTON        RAIN      70  70  99 SW7       29.77R
ELIZABETHTOWN  RAIN      71  70  98 S7        29.76S
GOLDSBORO      CLOUDY    70  70 100 S10       29.74S
GREENVILLE     RAIN      70  68  94 S14       29.79S
HAVELOCK       NOT AVBL
KENANSVILLE    LGT RAIN  70  68  92 S3        29.77S
KINSTON        DRIZZLE   72  68  88 S14G21    29.77F
NEW BERN       CLOUDY    73  68  83 S17G31    29.80F
RICHLANDS      CLOUDY    72  66  83 SE20G28   29.78F
ROANOKE RAPIDS NOT AVBL
ROCKY MOUNT      N/A    N/A N/A N/A MISG      29.73F
WASHINGTON     CLOUDY    73  68  84 S7G18     29.78S
WHITEVILLE     CLOUDY    70  68  93 S9        29.77R

$$

AMZ130-135-150-152-154-156-158-170-250-252-270-ANZ085-086-088-633-658-670-151300-
MARINE OBSERVATIONS

STATION/POSITION TIME  TEMP    WIND        PRES    WAVE   SWELL
                       AIR SEA DIR/SP/G            HT/PER HT/PER
                 (UTC) (F)     (DEG/KT/KT) (MB)    (FT/S) (FT/S)
CHESAPEAKE LIGHT 1100   58     170/ 31/ 33 1008.2
BUOY 44014       1200   66 61  160/ 25/ 31 1009.5    8/ 8   7/ 8
DUCK             1200   66 47  180/ 19/ 25 1008.4
2E DUCK          1200      47                N/A     4/ 8
OREGON INLET     1200   69 70  160/ 19/ 30 1010.1
BUOY 44095       1200      65                N/A     8/ 7
HATTERAS CG      1200   69 65  170/ 15/ 22 1011.0
DIAMOND BUOY     NOT AVBL
CAPE LOOKOUT     1100   68     180/ 20/ 22 1010.5
BEAUFORT LAB     1200   67 65  180/ 17/ 21 1009.2
30 SE NEW RIVER  1200   70 63  180/ 21/ 23 1009.9    8/ 8
5 SE WRIGHTSVILL 1100   67 63  180/ 17/ 21 1008.9
FRYING PAN BUOY  1200   71 66  180/ 17/ 21 1009.1    8/ 8
BUOY 41001       NOT AVBL
BUOY 41002       NOT AVBL
BUOY 41004       NOT AVBL

$$



USA.gov is the U.S. government's official web portal to all federal, state and local government web resources and services.